Sarasota, FL

1:19 PM EST on December 06, 2019 (GMT -0500)
Sarasota-bradenton

Weather History for KSRQ - August, 2019

Change the Weather History Date:

Friday, August 9, 2019

  Actual Average Record
Temperature  
Mean Temperature 86 °F 82 °F  
Max Temperature 92 °F 90 °F 96 °F (1993)
Min Temperature 80 °F 75 °F 68 °F (1971)
Degree Days  
Heating Degree Days 0 0  
Month to date heating degree days 0 0  
Since 1 June heating degree days 0 0  
Since 1 July heating degree days 0 0  
Cooling Degree Days 21 17  
Month to date cooling degree days 170 153  
Year to date cooling degree days 2441 1915  
Since 1 June cooling degree days 1284 1164  
Growing Degree Days 36 (Base 50)    
Moisture  
Dew Point 77 °F    
Average Humidity 74    
Maximum Humidity 91    
Minimum Humidity 64    
Precipitation  
Precipitation T in 0.28 in 4.41 in (1928)
Month to date precipitation 2.32 2.44  
Year to date precipitation 30.85 31.63  
Sea Level Pressure  
Sea Level Pressure 29.97 in    
Wind  
Wind Speed 10 mph (WNW)    
Max Wind Speed 17 mph    
Max Gust Speed 23 mph    
Visibility 10 miles    
Events Thunderstorm    
T = Trace of Precipitation, MM = Missing Value Source: NWS Daily Summary

Daily Weather History Graph

Daily Weather History Graph

Search for Another Location

Airport or City:

Astronomy

Aug. 09, 2019 Rise Set
Actual Time 6:57 AM EDT 8:13 PM EDT
Civil Twilight 6:33 AM EDT 8:37 PM EDT
Nautical Twilight 6:03 AM EDT 9:07 PM EDT
Astronomical Twilight 5:33 AM EDT 9:37 PM EDT
Moon 3:46 PM EDT (8/9) 1:57 AM EDT (8/9)
Length of Visible Light 14h 04m
Length of Day
13h 15m
Waxing Gibbous, 70% of the Moon is Illuminated
Aug 9
Waxing Gibbous
Aug 15
Full
Aug 23
Last Quarter
Aug 30
New
Sep 5
First Quarter

Hourly Weather History & Observations

Time (EDT) Temp. Heat Index Dew Point Humidity Pressure Visibility Wind Dir Wind Speed Gust Speed Precip Events Conditions
12:53 AM 84.0 °F 92.6 °F 75.9 °F 76% 29.98 in 10.0 mi West 10.4 mph - N/A   Clear
1:53 AM 84.0 °F 93.7 °F 77.0 °F 79% 29.97 in 10.0 mi West 8.1 mph - N/A   Partly Cloudy
2:53 AM 84.0 °F 93.7 °F 77.0 °F 79% 29.96 in 10.0 mi WNW 6.9 mph - N/A   Clear
3:53 AM 84.0 °F 93.7 °F 77.0 °F 79% 29.94 in 10.0 mi WNW 5.8 mph - N/A   Partly Cloudy
4:53 AM 82.9 °F 91.8 °F 77.0 °F 82% 29.93 in 10.0 mi West 8.1 mph - N/A   Clear
5:53 AM 84.0 °F 93.7 °F 77.0 °F 79% 29.93 in 10.0 mi West 5.8 mph - N/A   Scattered Clouds
6:53 AM 84.0 °F 93.7 °F 77.0 °F 79% 29.94 in 10.0 mi West 6.9 mph - N/A   Scattered Clouds
7:53 AM 84.9 °F 95.3 °F 77.0 °F 77% 29.96 in 10.0 mi WNW 6.9 mph - N/A   Clear
8:27 AM 84.9 °F 95.3 °F 77.0 °F 77% 29.97 in 10.0 mi WNW 10.4 mph - N/A   Mostly Cloudy
8:37 AM 84.9 °F 95.3 °F 77.0 °F 77% 29.97 in 10.0 mi West 9.2 mph - N/A   Scattered Clouds
8:53 AM 86.0 °F 96.9 °F 77.0 °F 74% 29.97 in 10.0 mi West 11.5 mph - N/A   Clear
9:53 AM 86.0 °F 96.9 °F 77.0 °F 74% 29.99 in 10.0 mi WNW 11.5 mph - N/A   Mostly Cloudy
10:53 AM 86.0 °F 96.0 °F 75.9 °F 72% 30.01 in 10.0 mi North 8.1 mph - N/A   Scattered Clouds
11:53 AM 89.1 °F 100.2 °F 75.9 °F 65% 30.01 in 10.0 mi WNW 12.7 mph - N/A   Scattered Clouds
12:53 PM 91.0 °F 104.2 °F 77.0 °F 63% 30.00 in 10.0 mi WNW 11.5 mph - N/A   Clear
1:53 PM 90.0 °F 102.5 °F 77.0 °F 65% 29.99 in 10.0 mi West 12.7 mph - N/A   Scattered Clouds
2:53 PM 91.0 °F 104.2 °F 77.0 °F 63% 29.98 in 10.0 mi West 11.5 mph - N/A   Scattered Clouds
3:53 PM 91.0 °F 104.2 °F 77.0 °F 63% 29.96 in 10.0 mi West 12.7 mph - N/A   Clear
4:53 PM 90.0 °F 102.5 °F 77.0 °F 65% 29.95 in 10.0 mi West 12.7 mph - N/A   Clear
5:53 PM 89.1 °F 100.2 °F 75.9 °F 65% 29.95 in 10.0 mi WNW 15.0 mph - N/A   Clear
6:53 PM 87.1 °F 97.3 °F 75.9 °F 69% 29.95 in 10.0 mi WNW 11.5 mph - N/A   Clear
7:53 PM 86.0 °F 96.9 °F 77.0 °F 74% 29.96 in 10.0 mi WNW 9.2 mph - N/A   Partly Cloudy
8:53 PM 84.0 °F 91.9 °F 75.0 °F 74% 29.98 in 10.0 mi NW 16.1 mph 23.0 mph N/A   Overcast
9:00 PM 82.9 °F 88.8 °F 73.0 °F 72% 29.97 in 10.0 mi NW 12.7 mph - N/A Thunderstorm Overcast
9:21 PM 80.1 °F 85.1 °F 75.0 °F 85% 29.98 in 10.0 mi NNW 9.2 mph - 0.00 in   Mostly Cloudy
9:53 PM 81.0 °F 87.9 °F 77.0 °F 88% 29.99 in 10.0 mi NNW 4.6 mph - 0.00 in   Clear
10:53 PM 82.9 °F 92.8 °F 78.1 °F 85% 29.99 in 10.0 mi NNW 6.9 mph - N/A   Partly Cloudy
11:53 PM 84.9 °F 96.6 °F 78.1 °F 80% 29.99 in 10.0 mi WNW 10.4 mph - N/A   Partly Cloudy